Home > Weather > Najaf > Past weeks

Flag for Iraq Weather for the Past 2 Weeks in Najaf, Iraq

Now
32 °F

Clear.


Feels Like: 32 °F
Forecast: 45 / 63 °F
Wind: No wind

Location: Ilam

Current Time: Feb 9, 2016 at 4:36:52 AM

Latest Report: Feb 9, 2016 at 3:00 AM


Visibility: 10 mi

Pressure: 30.15 "Hg

Humidity: 100%

Dew point: 32 °F

Location of NajafLocation

Historic Weather in Najaf — Graph

°F

Najaf Temperature Yesterday

Maximum temperature yesterday: 48 °F (at 2:30 PM)
Minimum temperature yesterday: 34 °F (at 6:00 AM)
Average temperature yesterday: 40 °F

High & Low Weather Summary for the Past Weeks

 TemperatureHumidityPressure
High64 °F (Feb 5, 1:30 PM)100% (Jan 25, 7:30 AM)30.36 "Hg (Jan 25, 7:30 AM)
Low21 °F (Jan 29, 5:00 AM)8% (Feb 6, 12:30 PM)29.95 "Hg (Feb 7, 5:30 AM)
Average39 °F65%30.16 "Hg
* Reported Jan 25 2:00 AM — Feb 9 2:00 AM, Najaf, Weather by CustomWeather, © 2016

Note: Actual official high and low records may vary slightly from our data, if they occured in-between our weather recording intervals... More about our weather records

Advertising

Najaf Weather History for the Previous 24 Hours

 ConditionsComfort  
Time TempWeatherWind HumidityBarometerVisibility
2:00 AM
Tue, Feb 9
34 °FClear.No wind93%30.15 "Hg10 mi
1:00 AM34 °FClear.2 mph100%30.18 "Hg10 mi
12:00 AM32 °FClear.5 mph100%30.18 "Hg10 mi
11:00 PM
Mon, Feb 8
34 °FClear.2 mph93%30.18 "Hg10 mi
10:00 PM36 °FPassing clouds.2 mph100%30.18 "HgN/A
9:00 PM37 °FPassing clouds.7 mph93%30.15 "HgN/A
8:00 PM37 °FPassing clouds.2 mph93%30.15 "HgN/A
7:00 PM39 °FPartly cloudy.7 mph87%30.12 "HgN/A
6:00 PM39 °FPartly sunny.5 mph87%30.09 "HgN/A
5:00 PM41 °FBroken clouds.5 mph87%30.09 "HgN/A
4:00 PM43 °FBroken clouds.9 mph76%30.07 "HgN/A
3:00 PM48 °FBroken clouds.9 mph58%30.07 "HgN/A
2:30 PM48 °FBroken clouds.9 mph54%30.07 "HgN/A
2:00 PM46 °FBroken clouds.14 mph62%30.07 "HgN/A
1:30 PM46 °FBroken clouds.12 mph66%30.07 "HgN/A
1:00 PM46 °FBroken clouds.7 mph71%30.07 "HgN/A
12:00 PM45 °FBroken clouds.7 mph71%30.07 "HgN/A
11:00 AM45 °FBroken clouds.7 mph71%30.07 "HgN/A
10:00 AM43 °FBroken clouds.2 mph81%30.04 "Hg6 mi
9:00 AM41 °FBroken clouds.5 mph87%30.04 "Hg5 mi
8:00 AM36 °FBroken clouds.5 mph100%30.01 "Hg5 mi
7:30 AM36 °FBroken clouds.2 mph100%30.01 "Hg4 mi
7:00 AM36 °FLight rain. Mostly cloudy.No wind100%30.01 "Hg4 mi
6:30 AM36 °FLight rain. Passing clouds.2 mph100%29.98 "Hg4 mi
6:00 AM34 °FPassing clouds.5 mph100%29.98 "HgN/A
5:00 AM36 °FPassing clouds.No wind100%29.98 "HgN/A
4:00 AM37 °FPassing clouds.5 mph100%29.95 "HgN/A
Weather by CustomWeather, © 2016

See weather overviewHow to use our weather pages